Info for pilots

Image

Airfield Info:

EBUL
N51 08.7 - E003 28.6
ELEV 95' / 29m
RWY 07 / 25
799m * 45m (CIV) - 2980m (MIL)
Ursel Radio 135.130
Tel Aero Club Brugge : +32(0)9 374 25 75
Tel Vliegclub Ursel : +32(0)9 374 12 90

Operational Hours
FRI: 14h00LT - SS+30 MIN
SAT, SUN and HOL: TKOF and LDG: 10h00LT - SS+30 MIN
After 20h00LT to SS+30 MIN: only LDG allowed (PN)

Local Traffic Regulations
The use of the AD is subject to PPR from the OPR;
AD given in concession to the CIV club outside MIL ACT;
Solo training flights can only be performed after two reconnaissance flights with instructor. The solo training flight must be performed within six weeks after the first reconnaissance flight;
Jet aircraft operations not allowed.

Obstacles:
trees between 10M AGL and 22M AGL, caution when crosswind:
North of the RWY, 75M from CL, along the whole length of the RWY;
South of the RWY, 75M from CL, and at THR RWY 25 from THR RWY 07 to 140M east of THR RWY 07



Image

Image

Watch out!

Flight Procedures
RWY 07 and 25 left hand circuit, 1.200 FT QNH

Image

Taxi procedures:
RWY 07 (TKOF):
taxi on the north side of the RWY to the HLDG position of RWY 07

RWY 07 (LDG):
after landing roll out to the second intersection (THR RWY 25), turn left, turn left again, taxi via the TWY to the first intersection, turn left, cross the RWY (check for landing ACFT), taxi on the south side of the RWY to the AD reporting office

RWY 25 (TKOF):
taxi on the north side of the first intersection, turn left, next turn right, taxi via the TWY to the second intersection, turn right, taxi to the HLDG of RWY 25

RWY 25 (LDG):
after landing roll out to the end of the RWY, taxi on the south side of the RWY to the AD reporting office.





Image

Taxi & Circuit?

Image
Image
Image
Image

Current Metars - Auto refresh

EBOS - Oostende
2020/09/28 19:50 EBOS 281950Z 31008KT 9999 BKN025 15/11 Q1013 NOSIG


EBAW - Antwerpen
2020/09/28 19:50 EBAW 281950Z 29011KT 3000 -RA BR BKN003 15/14 Q1011 NOSIG


EBBR - Brussel
2020/09/28 19:50 EBBR 281950Z 30011KT 2200 -RADZ BR SCT003 OVC006 14/13 Q1012 TEMPO 3500 -RADZ BKN003 OVC006

Source : NOAA.GOV

Current TAFs - Auto refresh

EBOS - Oostende
2020/09/28 18:38 TAF EBOS 281700Z 2818/2924 31010KT 9999 BKN012 BECMG 2819/2821 SCT020 BECMG 2907/2909 24004KT PROB30 TEMPO 2912/2918 4500 RA SHRA

EBAW - Antwerpen
2020/09/28 18:27 TAF TAF EBAW 281700Z 2818/2903 30008KT 3000 -RADZ SCT002 BKN005 TEMPO 2818/2820 1700 BKN002 BECMG 2901/2903 9999 NSW SCT009 BKN020

EBBR - Brussel
2020/09/28 18:40 TAF EBBR 281700Z 2818/2924 30010KT 3500 -RADZ SCT003 BKN006 PROB40 TEMPO 2818/2824 2000 BKN003 BECMG 2901/2903 9999 NSW SCT006 BKN013 BECMG 2902/2904 FEW020 BECMG 2905/2907 24006KT

Source : NOAA.GOV
Image

Webcam

Direction runway 07 :